Wetterdaten: Freitag, 18.09.2015
Datum Zeit Auen-Temp. Temp gefhlt Luftfeuchte Luftdruck Regen Wind Richtung Richtung Taupunkt Windben
18.09.2015 00:00 10,2 C 10,1 C 86 % 1015,9 hPa 0,0 mm 0,3 km/h (0 Bft) S 180 8,0 C 0,0 km/h (0 Bft)
18.09.2015 00:05 10,2 C 10,1 C 86 % 1015,9 hPa 0,0 mm 0,3 km/h (0 Bft) S 180 8,0 C 0,0 km/h (0 Bft)
18.09.2015 00:10 10,2 C 10,1 C 86 % 1015,9 hPa 0,0 mm 0,0 km/h (0 Bft) NW 315 8,0 C 0,0 km/h (0 Bft)
18.09.2015 00:15 10,1 C 10,1 C 86 % 1016,2 hPa 0,0 mm 0,0 km/h (0 Bft) NW 315 7,9 C 0,0 km/h (0 Bft)
18.09.2015 00:20 10,1 C 10,0 C 86 % 1016,2 hPa 0,0 mm 0,0 km/h (0 Bft) NW 315 7,9 C 0,0 km/h (0 Bft)
18.09.2015 00:25 10,0 C 10,0 C 85 % 1016,2 hPa 0,0 mm 0,0 km/h (0 Bft) N-NW 337 7,6 C 0,0 km/h (0 Bft)
18.09.2015 00:30 10,0 C 9,9 C 85 % 1016,2 hPa 0,0 mm 0,0 km/h (0 Bft) NW 315 7,6 C 0,0 km/h (0 Bft)
18.09.2015 00:35 10,0 C 9,9 C 85 % 1016,2 hPa 0,0 mm 0,0 km/h (0 Bft) N 360 7,6 C 0,0 km/h (0 Bft)
18.09.2015 00:40 10,0 C 9,9 C 85 % 1016,2 hPa 0,0 mm 0,0 km/h (0 Bft) N-NW 337 7,6 C 0,0 km/h (0 Bft)
18.09.2015 00:45 9,9 C 9,8 C 86 % 1016,2 hPa 0,0 mm 0,0 km/h (0 Bft) W-NW 292 7,7 C 0,0 km/h (0 Bft)
18.09.2015 00:50 9,9 C 9,8 C 86 % 1016,2 hPa 0,0 mm 0,0 km/h (0 Bft) N-NW 337 7,7 C 0,0 km/h (0 Bft)
18.09.2015 00:55 9,8 C 9,7 C 86 % 1016,1 hPa 0,0 mm 0,0 km/h (0 Bft) N 360 7,6 C 0,0 km/h (0 Bft)
18.09.2015 01:00 9,5 C 9,5 C 85 % 1016,1 hPa 0,0 mm 0,0 km/h (0 Bft) N 360 7,1 C 0,0 km/h (0 Bft)
18.09.2015 01:05 9,4 C 9,3 C 85 % 1016,1 hPa 0,0 mm 0,0 km/h (0 Bft) W 270 7,0 C 0,0 km/h (0 Bft)
18.09.2015 01:10 9,5 C 9,3 C 86 % 1016,1 hPa 0,0 mm 0,5 km/h (0 Bft) NW 315 7,3 C 0,0 km/h (0 Bft)
18.09.2015 01:15 9,5 C 9,3 C 86 % 1016,2 hPa 0,0 mm 0,5 km/h (0 Bft) O-NO 67 7,3 C 0,0 km/h (0 Bft)
18.09.2015 01:20 9,2 C 9,1 C 86 % 1016,2 hPa 0,0 mm 0,0 km/h (0 Bft) NO 45 7,0 C 0,0 km/h (0 Bft)
18.09.2015 01:25 9,0 C 8,9 C 86 % 1016,2 hPa 0,0 mm 0,0 km/h (0 Bft) N-NO 22 6,8 C 0,0 km/h (0 Bft)
18.09.2015 01:30 8,9 C 8,8 C 86 % 1016,2 hPa 0,0 mm 0,3 km/h (0 Bft) W 270 6,7 C 0,0 km/h (0 Bft)
18.09.2015 01:35 8,9 C 8,7 C 86 % 1016,4 hPa 0,0 mm 0,3 km/h (0 Bft) SW 225 6,7 C 0,0 km/h (0 Bft)
18.09.2015 01:40 9,0 C 8,8 C 86 % 1016,4 hPa 0,0 mm 0,0 km/h (0 Bft) S-SW 202 6,8 C 0,0 km/h (0 Bft)
18.09.2015 01:45 9,0 C 8,8 C 86 % 1016,4 hPa 0,0 mm 0,0 km/h (0 Bft) S-SW 202 6,8 C 0,0 km/h (0 Bft)
18.09.2015 01:50 9,1 C 8,9 C 87 % 1016,4 hPa 0,0 mm 0,3 km/h (0 Bft) SO 135 7,1 C 4,7 km/h (1 Bft)
18.09.2015 01:55 9,2 C 9,1 C 87 % 1016,4 hPa 0,0 mm 0,3 km/h (0 Bft) N-NW 337 7,2 C 0,0 km/h (0 Bft)
18.09.2015 02:00 9,3 C 9,2 C 87 % 1016,4 hPa 0,0 mm 0,3 km/h (0 Bft) N-NO 22 7,2 C 4,9 km/h (1 Bft)
18.09.2015 02:05 9,5 C 9,5 C 84 % 1016,4 hPa 0,0 mm 0,5 km/h (0 Bft) S-SO 157 6,9 C 0,0 km/h (0 Bft)
18.09.2015 02:10 9,6 C 9,6 C 84 % 1016,4 hPa 0,0 mm 0,5 km/h (0 Bft) S 180 7,0 C 0,0 km/h (0 Bft)
18.09.2015 02:15 9,7 C 9,7 C 87 % 1016,4 hPa 0,0 mm 0,0 km/h (0 Bft) S 180 7,6 C 0,0 km/h (0 Bft)
18.09.2015 02:20 9,7 C 9,7 C 87 % 1016,4 hPa 0,0 mm 0,0 km/h (0 Bft) S 180 7,6 C 0,0 km/h (0 Bft)
18.09.2015 02:25 9,7 C 9,8 C 84 % 1016,4 hPa 0,0 mm 0,0 km/h (0 Bft) S 180 7,1 C 0,0 km/h (0 Bft)
18.09.2015 02:30 9,7 C 9,7 C 87 % 1016,4 hPa 0,0 mm 0,3 km/h (0 Bft) NW 315 7,6 C 3,9 km/h (1 Bft)
18.09.2015 02:35 9,7 C 9,6 C 87 % 1016,2 hPa 0,0 mm 0,3 km/h (0 Bft) NW 315 7,6 C 0,0 km/h (0 Bft)
18.09.2015 02:40 9,7 C 9,6 C 87 % 1016,2 hPa 0,0 mm 0,3 km/h (0 Bft) N-NW 337 7,6 C 0,0 km/h (0 Bft)
18.09.2015 02:45 9,8 C 9,7 C 87 % 1016,2 hPa 0,0 mm 0,0 km/h (0 Bft) N-NW 337 7,7 C 0,0 km/h (0 Bft)
18.09.2015 02:50 9,7 C 9,7 C 87 % 1016,2 hPa 0,0 mm 0,0 km/h (0 Bft) W-NW 292 7,6 C 0,0 km/h (0 Bft)
18.09.2015 02:55 9,8 C 9,7 C 87 % 1016,4 hPa 0,0 mm 0,0 km/h (0 Bft) W-NW 292 7,7 C 0,0 km/h (0 Bft)
18.09.2015 03:00 9,8 C 9,7 C 87 % 1016,4 hPa 0,0 mm 0,0 km/h (0 Bft) N-NW 337 7,7 C 0,0 km/h (0 Bft)
18.09.2015 03:05 9,7 C 9,7 C 84 % 1016,4 hPa 0,0 mm 0,0 km/h (0 Bft) N-NW 337 7,1 C 0,0 km/h (0 Bft)
18.09.2015 03:10 9,8 C 9,7 C 87 % 1016,4 hPa 0,0 mm 0,0 km/h (0 Bft) W 270 7,7 C 0,0 km/h (0 Bft)
18.09.2015 03:15 9,8 C 9,7 C 87 % 1016,2 hPa 0,0 mm 0,0 km/h (0 Bft) W 270 7,7 C 0,0 km/h (0 Bft)
18.09.2015 03:20 9,8 C 9,8 C 84 % 1016,2 hPa 0,0 mm 0,0 km/h (0 Bft) NW 315 7,2 C 0,0 km/h (0 Bft)
18.09.2015 03:25 9,8 C 9,8 C 84 % 1016,2 hPa 0,0 mm 0,0 km/h (0 Bft) NW 315 7,2 C 0,0 km/h (0 Bft)
18.09.2015 03:30 9,8 C 9,8 C 84 % 1016,2 hPa 0,0 mm 0,0 km/h (0 Bft) NW 315 7,2 C 0,0 km/h (0 Bft)
18.09.2015 03:35 9,8 C 9,8 C 84 % 1016,4 hPa 0,0 mm 0,0 km/h (0 Bft) NW 315 7,2 C 0,0 km/h (0 Bft)
18.09.2015 03:40 9,9 C 9,9 C 84 % 1016,4 hPa 0,0 mm 1,0 km/h (0 Bft) SW 225 7,3 C 11,1 km/h (2 Bft)
18.09.2015 03:45 10,1 C 10,0 C 86 % 1016,4 hPa 0,0 mm 2,8 km/h (1 Bft) S-SW 202 7,9 C 5,2 km/h (1 Bft)
18.09.2015 03:50 10,1 C 10,0 C 86 % 1016,4 hPa 0,0 mm 1,8 km/h (1 Bft) S-SO 157 7,9 C 0,0 km/h (0 Bft)
18.09.2015 03:55 10,1 C 10,0 C 86 % 1016,6 hPa 0,0 mm 0,3 km/h (0 Bft) S-SO 157 7,9 C 0,0 km/h (0 Bft)
18.09.2015 04:00 10,2 C 10,1 C 86 % 1016,6 hPa 0,0 mm 0,8 km/h (0 Bft) S 180 8,0 C 0,0 km/h (0 Bft)
18.09.2015 04:05 10,2 C 10,1 C 86 % 1016,6 hPa 0,0 mm 2,1 km/h (1 Bft) S-SO 157 8,0 C 4,1 km/h (1 Bft)
18.09.2015 04:10 10,3 C 10,2 C 86 % 1016,6 hPa 0,0 mm 2,6 km/h (1 Bft) SW 225 8,1 C 0,0 km/h (0 Bft)
18.09.2015 04:15 10,3 C 10,2 C 86 % 1016,6 hPa 0,0 mm 1,6 km/h (1 Bft) S-SO 157 8,1 C 0,0 km/h (0 Bft)
18.09.2015 04:20 10,2 C 10,2 C 83 % 1016,6 hPa 0,0 mm 0,3 km/h (0 Bft) S-SO 157 7,4 C 0,0 km/h (0 Bft)
18.09.2015 04:25 10,3 C 10,2 C 85 % 1016,6 hPa 0,0 mm 0,5 km/h (0 Bft) S-SO 157 7,9 C 0,0 km/h (0 Bft)
18.09.2015 04:29 10,4 C 10,3 C 85 % 1016,6 hPa 0,0 mm 0,5 km/h (0 Bft) SO 135 8,0 C 0,0 km/h (0 Bft)
18.09.2015 04:30 10,4 C 10,3 C 85 % 1016,6 hPa 0,0 mm 0,5 km/h (0 Bft) SO 135 8,0 C 0,0 km/h (0 Bft)
18.09.2015 04:35 10,2 C 10,2 C 85 % 1016,5 hPa 0,0 mm 0,3 km/h (0 Bft) SO 135 7,8 C 0,0 km/h (0 Bft)
18.09.2015 04:40 10,1 C 10,1 C 85 % 1016,5 hPa 0,0 mm 0,3 km/h (0 Bft) W-NW 292 7,7 C 0,0 km/h (0 Bft)
18.09.2015 04:45 10,0 C 10,0 C 85 % 1016,5 hPa 0,0 mm 0,3 km/h (0 Bft) NW 315 7,6 C 0,0 km/h (0 Bft)
18.09.2015 04:50 10,0 C 10,0 C 85 % 1016,5 hPa 0,0 mm 0,0 km/h (0 Bft) NW 315 7,6 C 0,0 km/h (0 Bft)
18.09.2015 04:55 10,0 C 10,0 C 85 % 1016,6 hPa 0,0 mm 0,0 km/h (0 Bft) NW 315 7,6 C 0,0 km/h (0 Bft)
18.09.2015 05:00 10,0 C 9,9 C 85 % 1016,6 hPa 0,0 mm 0,0 km/h (0 Bft) NW 315 7,6 C 0,0 km/h (0 Bft)
18.09.2015 05:05 10,0 C 9,9 C 85 % 1016,6 hPa 0,0 mm 0,0 km/h (0 Bft) W 270 7,6 C 0,0 km/h (0 Bft)
18.09.2015 05:10 10,0 C 9,9 C 85 % 1016,6 hPa 0,0 mm 0,0 km/h (0 Bft) W 270 7,6 C 0,0 km/h (0 Bft)
18.09.2015 05:15 10,0 C 9,9 C 85 % 1016,4 hPa 0,0 mm 0,0 km/h (0 Bft) W 270 7,6 C 0,0 km/h (0 Bft)
18.09.2015 05:20 9,9 C 9,9 C 83 % 1016,4 hPa 0,0 mm 0,0 km/h (0 Bft) W 270 7,2 C 0,0 km/h (0 Bft)
18.09.2015 05:25 9,9 C 9,8 C 86 % 1016,4 hPa 0,0 mm 0,0 km/h (0 Bft) W 270 7,7 C 0,0 km/h (0 Bft)
18.09.2015 05:30 9,8 C 9,7 C 85 % 1016,4 hPa 0,0 mm 0,0 km/h (0 Bft) W 270 7,4 C 0,0 km/h (0 Bft)
18.09.2015 05:35 9,8 C 9,7 C 86 % 1016,6 hPa 0,0 mm 0,0 km/h (0 Bft) W 270 7,6 C 0,0 km/h (0 Bft)
18.09.2015 05:40 9,8 C 9,7 C 86 % 1016,6 hPa 0,0 mm 0,0 km/h (0 Bft) W 270 7,6 C 0,0 km/h (0 Bft)
18.09.2015 05:45 9,8 C 9,7 C 86 % 1016,6 hPa 0,0 mm 0,0 km/h (0 Bft) W 270 7,6 C 0,0 km/h (0 Bft)
18.09.2015 05:50 9,7 C 9,6 C 86 % 1016,6 hPa 0,0 mm 0,0 km/h (0 Bft) W 270 7,5 C 0,0 km/h (0 Bft)
18.09.2015 05:55 9,7 C 9,6 C 86 % 1016,4 hPa 0,0 mm 0,0 km/h (0 Bft) SW 225 7,5 C 0,0 km/h (0 Bft)
18.09.2015 06:00 9,6 C 9,5 C 86 % 1016,4 hPa 0,0 mm 0,0 km/h (0 Bft) NW 315 7,4 C 0,0 km/h (0 Bft)
18.09.2015 06:05 9,5 C 9,4 C 86 % 1016,4 hPa 0,0 mm 0,0 km/h (0 Bft) NW 315 7,3 C 0,0 km/h (0 Bft)
18.09.2015 06:10 9,4 C 9,3 C 86 % 1016,4 hPa 0,0 mm 0,0 km/h (0 Bft) NW 315 7,2 C 0,0 km/h (0 Bft)
18.09.2015 06:15 9,2 C 9,1 C 86 % 1016,2 hPa 0,0 mm 0,0 km/h (0 Bft) NW 315 7,0 C 0,0 km/h (0 Bft)
18.09.2015 06:20 9,0 C 8,8 C 86 % 1016,2 hPa 0,0 mm 0,0 km/h (0 Bft) W-NW 292 6,8 C 0,0 km/h (0 Bft)
18.09.2015 06:25 9,0 C 8,8 C 86 % 1016,2 hPa 0,0 mm 0,0 km/h (0 Bft) W-SW 247 6,8 C 0,0 km/h (0 Bft)
18.09.2015 06:30 9,0 C 8,8 C 86 % 1016,2 hPa 0,0 mm 0,0 km/h (0 Bft) W-SW 247 6,8 C 0,0 km/h (0 Bft)
18.09.2015 06:35 8,9 C 8,7 C 86 % 1016,2 hPa 0,0 mm 0,0 km/h (0 Bft) W-NW 292 6,7 C 0,0 km/h (0 Bft)
18.09.2015 06:40 8,8 C 8,6 C 86 % 1016,2 hPa 0,0 mm 0,0 km/h (0 Bft) W-SW 247 6,6 C 0,0 km/h (0 Bft)
18.09.2015 06:45 8,9 C 8,7 C 86 % 1016,2 hPa 0,0 mm 0,0 km/h (0 Bft) W-SW 247 6,7 C 0,0 km/h (0 Bft)
18.09.2015 06:50 8,8 C 8,6 C 86 % 1016,2 hPa 0,0 mm 0,0 km/h (0 Bft) W-SW 247 6,6 C 0,0 km/h (0 Bft)
18.09.2015 06:55 8,6 C 8,4 C 86 % 1016,2 hPa 0,0 mm 0,0 km/h (0 Bft) W-SW 247 6,4 C 0,0 km/h (0 Bft)
18.09.2015 07:00 8,5 C 8,3 C 86 % 1016,2 hPa 0,0 mm 0,0 km/h (0 Bft) W 270 6,3 C 0,0 km/h (0 Bft)
18.09.2015 07:05 8,2 C 8,0 C 86 % 1016,2 hPa 0,0 mm 0,0 km/h (0 Bft) W-NW 292 6,0 C 0,0 km/h (0 Bft)
18.09.2015 07:10 8,4 C 8,1 C 86 % 1016,2 hPa 0,0 mm 0,0 km/h (0 Bft) SW 225 6,2 C 0,0 km/h (0 Bft)
18.09.2015 07:15 8,1 C 7,9 C 86 % 1016,4 hPa 0,0 mm 0,0 km/h (0 Bft) NW 315 5,9 C 0,0 km/h (0 Bft)
18.09.2015 07:20 7,9 C 7,7 C 87 % 1016,4 hPa 0,0 mm 0,0 km/h (0 Bft) NW 315 5,9 C 0,0 km/h (0 Bft)
18.09.2015 07:25 8,0 C 7,8 C 86 % 1016,4 hPa 0,0 mm 0,0 km/h (0 Bft) NW 315 5,8 C 0,0 km/h (0 Bft)
18.09.2015 07:30 7,8 C 7,7 C 87 % 1016,4 hPa 0,0 mm 0,0 km/h (0 Bft) NW 315 5,8 C 0,0 km/h (0 Bft)
18.09.2015 07:35 7,8 C 7,7 C 87 % 1016,5 hPa 0,0 mm 0,0 km/h (0 Bft) NW 315 5,8 C 0,0 km/h (0 Bft)
18.09.2015 07:40 7,6 C 7,5 C 87 % 1016,5 hPa 0,0 mm 0,0 km/h (0 Bft) NW 315 5,6 C 0,0 km/h (0 Bft)
18.09.2015 07:45 7,9 C 7,7 C 87 % 1016,5 hPa 0,0 mm 0,0 km/h (0 Bft) NW 315 5,9 C 0,0 km/h (0 Bft)
18.09.2015 07:50 8,0 C 7,8 C 88 % 1016,5 hPa 0,0 mm 0,0 km/h (0 Bft) S 180 6,1 C 0,0 km/h (0 Bft)
18.09.2015 07:55 7,9 C 7,8 C 88 % 1016,6 hPa 0,0 mm 0,0 km/h (0 Bft) S 180 6,0 C 0,0 km/h (0 Bft)
18.09.2015 08:00 7,8 C 7,7 C 88 % 1016,6 hPa 0,0 mm 0,0 km/h (0 Bft) S 180 5,9 C 0,0 km/h (0 Bft)
18.09.2015 08:05 7,8 C 7,7 C 88 % 1016,6 hPa 0,0 mm 0,0 km/h (0 Bft) S-SW 202 5,9 C 0,0 km/h (0 Bft)
18.09.2015 08:10 7,9 C 10,4 C 88 % 1016,6 hPa 0,0 mm 0,0 km/h (0 Bft) SW 225 6,0 C 0,0 km/h (0 Bft)
18.09.2015 08:15 8,1 C 12,5 C 88 % 1016,6 hPa 0,0 mm 0,0 km/h (0 Bft) W-SW 247 6,2 C 0,0 km/h (0 Bft)
18.09.2015 08:20 8,2 C 14,8 C 88 % 1016,6 hPa 0,0 mm 0,0 km/h (0 Bft) W 270 6,3 C 0,0 km/h (0 Bft)
18.09.2015 08:25 8,3 C 14,8 C 88 % 1016,6 hPa 0,0 mm 0,0 km/h (0 Bft) S 180 6,4 C 0,0 km/h (0 Bft)
18.09.2015 08:30 8,6 C 13,4 C 85 % 1016,6 hPa 0,0 mm 0,5 km/h (0 Bft) S 180 6,2 C 0,0 km/h (0 Bft)
18.09.2015 08:35 8,9 C 13,2 C 85 % 1016,6 hPa 0,0 mm 0,5 km/h (0 Bft) S-SO 157 6,5 C 0,0 km/h (0 Bft)
18.09.2015 08:40 9,4 C 16,5 C 85 % 1016,6 hPa 0,0 mm 0,0 km/h (0 Bft) S-SO 157 7,0 C 0,0 km/h (0 Bft)
18.09.2015 08:45 9,8 C 18,5 C 85 % 1016,6 hPa 0,0 mm 0,0 km/h (0 Bft) S-SO 157 7,4 C 0,0 km/h (0 Bft)
18.09.2015 08:50 10,5 C 20,9 C 85 % 1016,6 hPa 0,0 mm 0,0 km/h (0 Bft) W 270 8,1 C 0,0 km/h (0 Bft)
18.09.2015 08:55 11,2 C 21,6 C 85 % 1016,9 hPa 0,0 mm 0,0 km/h (0 Bft) W 270 8,8 C 0,0 km/h (0 Bft)
18.09.2015 09:00 12,2 C 22,4 C 84 % 1016,9 hPa 0,0 mm 0,0 km/h (0 Bft) W 270 9,6 C 0,0 km/h (0 Bft)
18.09.2015 09:05 12,7 C 22,5 C 83 % 1016,9 hPa 0,0 mm 0,0 km/h (0 Bft) W-NW 292 9,9 C 0,0 km/h (0 Bft)
18.09.2015 09:10 13,6 C 22,9 C 84 % 1016,9 hPa 0,0 mm 0,0 km/h (0 Bft) W-NW 292 10,9 C 0,0 km/h (0 Bft)
18.09.2015 09:15 14,1 C 22,9 C 83 % 1017,6 hPa 0,0 mm 0,0 km/h (0 Bft) W-NW 292 11,3 C 0,0 km/h (0 Bft)
18.09.2015 09:20 13,9 C 23,6 C 79 % 1017,6 hPa 0,0 mm 0,0 km/h (0 Bft) W-NW 292 10,3 C 0,0 km/h (0 Bft)
18.09.2015 09:25 14,1 C 23,2 C 77 % 1017,6 hPa 0,0 mm 0,0 km/h (0 Bft) W-NW 292 10,1 C 0,0 km/h (0 Bft)
18.09.2015 09:30 13,8 C 21,8 C 75 % 1017,6 hPa 0,0 mm 0,0 km/h (0 Bft) W-NW 292 9,4 C 0,0 km/h (0 Bft)
18.09.2015 09:35 13,9 C 21,7 C 75 % 1018,2 hPa 0,0 mm 0,0 km/h (0 Bft) W-NW 292 9,5 C 0,0 km/h (0 Bft)
18.09.2015 09:40 13,7 C 20,4 C 74 % 1018,2 hPa 0,0 mm 0,0 km/h (0 Bft) W-NW 292 9,2 C 0,0 km/h (0 Bft)
18.09.2015 09:45 13,7 C 19,6 C 74 % 1018,2 hPa 0,0 mm 0,0 km/h (0 Bft) W-NW 292 9,2 C 0,0 km/h (0 Bft)
18.09.2015 09:50 14,1 C 19,1 C 74 % 1018,2 hPa 0,0 mm 0,3 km/h (0 Bft) W-NW 292 9,5 C 0,0 km/h (0 Bft)
18.09.2015 09:55 14,2 C 19,0 C 73 % 1018,5 hPa 0,0 mm 0,8 km/h (0 Bft) W-NW 292 9,4 C 3,4 km/h (1 Bft)
18.09.2015 10:00 14,7 C 19,4 C 73 % 1018,5 hPa 0,0 mm 1,0 km/h (0 Bft) W-NW 292 9,9 C 4,1 km/h (1 Bft)
18.09.2015 10:05 15,4 C 19,9 C 72 % 1018,5 hPa 0,0 mm 1,6 km/h (1 Bft) W-NW 292 10,4 C 3,9 km/h (1 Bft)
18.09.2015 10:10 15,4 C 20,8 C 70 % 1018,5 hPa 0,0 mm 2,8 km/h (1 Bft) W-SW 247 10,0 C 0,0 km/h (0 Bft)
18.09.2015 10:15 15,9 C 21,6 C 69 % 1018,8 hPa 0,0 mm 3,4 km/h (1 Bft) NO 45 10,2 C 4,9 km/h (1 Bft)
18.09.2015 10:20 15,9 C 21,6 C 66 % 1018,8 hPa 0,0 mm 3,9 km/h (1 Bft) N-NW 337 9,6 C 12,7 km/h (3 Bft)
18.09.2015 10:25 15,8 C 22,0 C 66 % 1018,8 hPa 0,0 mm 5,2 km/h (1 Bft) NW 315 9,5 C 4,4 km/h (1 Bft)
18.09.2015 10:30 15,6 C 20,4 C 67 % 1017,4 hPa 0,0 mm 3,6 km/h (1 Bft) O-NO 67 9,5 C 2,8 km/h (1 Bft)
18.09.2015 10:35 15,6 C 20,4 C 67 % 1017,4 hPa 0,0 mm 3,6 km/h (1 Bft) O-NO 67 9,5 C 2,8 km/h (1 Bft)
18.09.2015 10:40 15,4 C 19,2 C 67 % 1017,4 hPa 0,0 mm 3,1 km/h (1 Bft) N-NO 22 9,3 C 4,4 km/h (1 Bft)
18.09.2015 10:45 15,3 C 18,5 C 67 % 1017,4 hPa 0,0 mm 3,4 km/h (1 Bft) NO 45 9,2 C 3,4 km/h (1 Bft)
18.09.2015 10:50 15,4 C 18,6 C 67 % 1017,4 hPa 0,0 mm 2,1 km/h (1 Bft) NW 315 9,3 C 3,9 km/h (1 Bft)
18.09.2015 10:55 16,0 C 19,8 C 65 % 1019,1 hPa 0,0 mm 1,6 km/h (1 Bft) N-NO 22 9,4 C 0,0 km/h (0 Bft)
18.09.2015 11:00 16,9 C 23,1 C 64 % 1019,1 hPa 0,0 mm 2,3 km/h (1 Bft) NW 315 10,0 C 7,0 km/h (2 Bft)
18.09.2015 11:05 16,5 C 22,6 C 62 % 1019,1 hPa 0,0 mm 3,1 km/h (1 Bft) W-NW 292 9,2 C 6,0 km/h (2 Bft)
18.09.2015 11:10 16,2 C 21,1 C 62 % 1019,1 hPa 0,0 mm 4,7 km/h (1 Bft) N-NW 337 8,9 C 4,9 km/h (1 Bft)
18.09.2015 11:15 16,1 C 20,0 C 62 % 1019,6 hPa 0,0 mm 4,7 km/h (1 Bft) N-NW 337 8,8 C 4,1 km/h (1 Bft)
18.09.2015 11:20 16,0 C 19,4 C 62 % 1019,6 hPa 0,0 mm 4,4 km/h (1 Bft) NW 315 8,7 C 6,2 km/h (2 Bft)
18.09.2015 11:25 16,3 C 19,7 C 62 % 1019,6 hPa 0,0 mm 5,2 km/h (1 Bft) W-NW 292 9,0 C 8,5 km/h (2 Bft)
18.09.2015 11:30 17,2 C 21,7 C 61 % 1019,6 hPa 0,0 mm 5,2 km/h (1 Bft) W-NW 292 9,6 C 6,7 km/h (2 Bft)
18.09.2015 11:35 17,6 C 22,6 C 61 % 1019,7 hPa 0,0 mm 5,7 km/h (1 Bft) NW 315 10,0 C 11,7 km/h (2 Bft)
18.09.2015 11:40 17,2 C 22,2 C 60 % 1019,7 hPa 0,0 mm 6,7 km/h (2 Bft) W-NW 292 9,4 C 15,0 km/h (3 Bft)
18.09.2015 11:45 17,0 C 21,9 C 61 % 1019,7 hPa 0,0 mm 6,2 km/h (2 Bft) N-NW 337 9,4 C 11,1 km/h (2 Bft)
18.09.2015 11:50 16,7 C 21,2 C 62 % 1019,7 hPa 0,0 mm 4,9 km/h (1 Bft) N-NO 22 9,4 C 7,3 km/h (2 Bft)
18.09.2015 11:55 16,6 C 20,6 C 62 % 1019,8 hPa 0,0 mm 5,7 km/h (1 Bft) N-NW 337 9,3 C 10,4 km/h (2 Bft)
18.09.2015 12:00 16,2 C 19,4 C 61 % 1019,8 hPa 0,0 mm 6,7 km/h (2 Bft) N-NW 337 8,7 C 0,0 km/h (0 Bft)
18.09.2015 12:05 16,1 C 19,1 C 61 % 1019,8 hPa 0,0 mm 5,7 km/h (1 Bft) N-NW 337 8,6 C 8,5 km/h (2 Bft)
18.09.2015 12:10 16,4 C 19,5 C 62 % 1019,8 hPa 0,0 mm 3,1 km/h (1 Bft) W-NW 292 9,1 C 4,7 km/h (1 Bft)
18.09.2015 12:15 16,4 C 19,8 C 62 % 1019,6 hPa 0,0 mm 4,4 km/h (1 Bft) N-NO 22 9,1 C 8,0 km/h (2 Bft)
18.09.2015 12:20 16,4 C 19,7 C 62 % 1019,6 hPa 0,0 mm 4,4 km/h (1 Bft) NW 315 9,1 C 9,8 km/h (2 Bft)
18.09.2015 12:25 16,4 C 19,6 C 62 % 1019,6 hPa 0,0 mm 3,9 km/h (1 Bft) NW 315 9,1 C 4,9 km/h (1 Bft)
18.09.2015 12:30 16,4 C 19,8 C 63 % 1019,6 hPa 0,0 mm 5,2 km/h (1 Bft) W-NW 292 9,3 C 7,5 km/h (2 Bft)
18.09.2015 12:35 16,5 C 19,8 C 63 % 1019,4 hPa 0,0 mm 5,7 km/h (1 Bft) NW 315 9,4 C 11,7 km/h (2 Bft)
18.09.2015 12:40 16,6 C 19,5 C 62 % 1019,4 hPa 0,0 mm 6,0 km/h (2 Bft) NW 315 9,3 C 4,1 km/h (1 Bft)
18.09.2015 12:45 16,5 C 19,5 C 61 % 1019,4 hPa 0,0 mm 6,5 km/h (2 Bft) NO 45 9,0 C 11,9 km/h (2 Bft)
18.09.2015 12:50 16,5 C 19,7 C 61 % 1019,4 hPa 0,0 mm 7,5 km/h (2 Bft) NW 315 9,0 C 16,3 km/h (3 Bft)
18.09.2015 12:55 16,6 C 20,2 C 62 % 1019,2 hPa 0,0 mm 7,0 km/h (2 Bft) NW 315 9,3 C 8,3 km/h (2 Bft)
18.09.2015 13:00 16,5 C 19,8 C 61 % 1019,2 hPa 0,0 mm 4,7 km/h (1 Bft) N-NO 22 9,0 C 4,9 km/h (1 Bft)
18.09.2015 13:05 16,4 C 19,8 C 61 % 1019,2 hPa 0,0 mm 4,9 km/h (1 Bft) NW 315 8,9 C 6,0 km/h (2 Bft)
18.09.2015 13:10 16,4 C 19,5 C 61 % 1019,2 hPa 0,0 mm 4,9 km/h (1 Bft) NW 315 8,9 C 3,9 km/h (1 Bft)
18.09.2015 13:15 16,4 C 19,3 C 61 % 1020,1 hPa 0,0 mm 5,2 km/h (1 Bft) N-NW 337 8,9 C 0,0 km/h (0 Bft)
18.09.2015 13:20 16,6 C 19,5 C 61 % 1020,1 hPa 0,0 mm 3,4 km/h (1 Bft) N-NW 337 9,0 C 11,7 km/h (2 Bft)
18.09.2015 13:25 16,6 C 19,5 C 61 % 1020,1 hPa 0,0 mm 4,4 km/h (1 Bft) N-NW 337 9,0 C 7,5 km/h (2 Bft)
18.09.2015 13:30 16,5 C 19,3 C 61 % 1020,1 hPa 0,0 mm 6,5 km/h (2 Bft) N-NW 337 9,0 C 9,3 km/h (2 Bft)
18.09.2015 13:35 16,6 C 19,4 C 61 % 1019,7 hPa 0,0 mm 6,0 km/h (2 Bft) N-NW 337 9,0 C 4,7 km/h (1 Bft)
18.09.2015 13:40 16,5 C 19,5 C 60 % 1019,7 hPa 0,0 mm 4,4 km/h (1 Bft) NW 315 8,7 C 4,1 km/h (1 Bft)
18.09.2015 13:45 16,6 C 19,7 C 61 % 1019,7 hPa 0,0 mm 4,4 km/h (1 Bft) NW 315 9,0 C 8,3 km/h (2 Bft)
18.09.2015 13:50 16,7 C 19,5 C 60 % 1019,7 hPa 0,0 mm 5,2 km/h (1 Bft) N-NW 337 8,9 C 0,0 km/h (0 Bft)
18.09.2015 13:55 16,7 C 19,3 C 60 % 1019,4 hPa 0,0 mm 5,7 km/h (1 Bft) N-NW 337 8,9 C 8,8 km/h (2 Bft)
18.09.2015 14:00 16,4 C 18,9 C 60 % 1019,4 hPa 0,0 mm 5,2 km/h (1 Bft) W 270 8,6 C 8,3 km/h (2 Bft)
18.09.2015 14:05 16,2 C 18,1 C 61 % 1019,4 hPa 0,0 mm 6,5 km/h (2 Bft) NW 315 8,7 C 10,9 km/h (2 Bft)
18.09.2015 14:10 15,3 C 16,5 C 64 % 1019,4 hPa 0,0 mm 8,8 km/h (2 Bft) NW 315 8,5 C 17,1 km/h (3 Bft)
18.09.2015 14:15 15,0 C 15,8 C 65 % 1019,6 hPa 0,0 mm 9,8 km/h (2 Bft) W 270 8,5 C 4,1 km/h (1 Bft)
18.09.2015 14:20 14,8 C 15,1 C 66 % 1019,6 hPa 0,0 mm 7,5 km/h (2 Bft) W-NW 292 8,5 C 0,0 km/h (0 Bft)
18.09.2015 14:25 14,7 C 15,0 C 66 % 1019,6 hPa 0,0 mm 5,4 km/h (1 Bft) NW 315 8,4 C 4,9 km/h (1 Bft)
18.09.2015 14:30 14,5 C 14,6 C 67 % 1019,6 hPa 0,0 mm 5,2 km/h (1 Bft) NW 315 8,4 C 5,2 km/h (1 Bft)
18.09.2015 14:35 14,4 C 14,5 C 68 % 1019,4 hPa 0,0 mm 4,9 km/h (1 Bft) NW 315 8,6 C 4,9 km/h (1 Bft)
18.09.2015 14:40 14,3 C 14,5 C 68 % 1019,4 hPa 0,0 mm 1,8 km/h (1 Bft) W-NW 292 8,5 C 3,1 km/h (1 Bft)
18.09.2015 14:45 14,3 C 14,4 C 69 % 1019,4 hPa 0,0 mm 2,1 km/h (1 Bft) N-NO 22 8,7 C 5,2 km/h (1 Bft)
18.09.2015 14:50 14,1 C 14,2 C 69 % 1019,4 hPa 0,0 mm 2,3 km/h (1 Bft) W-NW 292 8,5 C 6,0 km/h (2 Bft)
18.09.2015 14:55 14,1 C 14,2 C 69 % 1019,4 hPa 0,0 mm 2,6 km/h (1 Bft) W-SW 247 8,5 C 3,6 km/h (1 Bft)
18.09.2015 15:00 14,0 C 14,2 C 70 % 1019,4 hPa 0,0 mm 2,1 km/h (1 Bft) W-NW 292 8,6 C 3,9 km/h (1 Bft)
18.09.2015 15:05 14,0 C 14,2 C 70 % 1019,4 hPa 0,0 mm 1,3 km/h (1 Bft) NW 315 8,6 C 2,6 km/h (1 Bft)
18.09.2015 15:10 14,1 C 14,5 C 71 % 1019,4 hPa 0,0 mm 1,0 km/h (0 Bft) N 360 8,9 C 9,8 km/h (2 Bft)
18.09.2015 15:15 14,1 C 14,5 C 71 % 1019,4 hPa 0,0 mm 2,6 km/h (1 Bft) NW 315 8,9 C 0,0 km/h (0 Bft)
18.09.2015 15:20 14,1 C 14,5 C 71 % 1019,4 hPa 0,0 mm 3,6 km/h (1 Bft) N 360 8,9 C 2,6 km/h (1 Bft)
18.09.2015 15:25 14,1 C 14,6 C 72 % 1019,4 hPa 0,0 mm 2,6 km/h (1 Bft) N-NO 22 9,1 C 4,7 km/h (1 Bft)
18.09.2015 15:30 14,1 C 14,6 C 72 % 1019,4 hPa 0,0 mm 2,1 km/h (1 Bft) W-NW 292 9,1 C 3,4 km/h (1 Bft)
18.09.2015 15:35 14,1 C 14,6 C 71 % 1019,4 hPa 0,0 mm 1,6 km/h (1 Bft) W-NW 292 8,9 C 0,0 km/h (0 Bft)
18.09.2015 15:40 14,0 C 14,6 C 72 % 1019,4 hPa 0,0 mm 0,5 km/h (0 Bft) W 270 9,0 C 0,0 km/h (0 Bft)
18.09.2015 15:45 14,0 C 14,5 C 73 % 1019,4 hPa 0,0 mm 0,0 km/h (0 Bft) O 90 9,2 C 0,0 km/h (0 Bft)
18.09.2015 15:50 13,9 C 14,5 C 73 % 1019,4 hPa 0,0 mm 1,0 km/h (0 Bft) O-SO 112 9,1 C 0,0 km/h (0 Bft)
18.09.2015 15:55 13,9 C 14,5 C 73 % 1019,6 hPa 0,0 mm 1,3 km/h (1 Bft) O 90 9,1 C 0,0 km/h (0 Bft)
18.09.2015 16:00 14,0 C 14,5 C 73 % 1019,6 hPa 0,0 mm 0,5 km/h (0 Bft) NO 45 9,2 C 0,0 km/h (0 Bft)
18.09.2015 16:05 14,1 C 14,6 C 73 % 1019,6 hPa 0,0 mm 0,0 km/h (0 Bft) O-NO 67 9,3 C 0,0 km/h (0 Bft)
18.09.2015 16:10 14,1 C 14,8 C 73 % 1019,6 hPa 0,0 mm 0,0 km/h (0 Bft) NO 45 9,3 C 0,0 km/h (0 Bft)
18.09.2015 16:15 14,1 C 15,0 C 73 % 1019,4 hPa 0,0 mm 0,0 km/h (0 Bft) O-NO 67 9,3 C 0,0 km/h (0 Bft)
18.09.2015 16:20 14,1 C 15,1 C 73 % 1019,4 hPa 0,0 mm 0,0 km/h (0 Bft) O-NO 67 9,3 C 0,0 km/h (0 Bft)
18.09.2015 16:25 14,2 C 15,4 C 72 % 1019,4 hPa 0,0 mm 0,0 km/h (0 Bft) NO 45 9,2 C 0,0 km/h (0 Bft)
18.09.2015 16:30 14,6 C 16,0 C 72 % 1019,4 hPa 0,0 mm 0,8 km/h (0 Bft) O-SO 112 9,6 C 0,0 km/h (0 Bft)
18.09.2015 16:32 14,6 C 16,0 C 72 % 1019,4 hPa 0,0 mm 0,8 km/h (0 Bft) O-SO 112 9,6 C 0,0 km/h (0 Bft)
18.09.2015 16:35 14,6 C 16,0 C 72 % 1019,4 hPa 0,0 mm 0,8 km/h (0 Bft) O-SO 112 9,6 C 0,0 km/h (0 Bft)
18.09.2015 16:40 14,6 C 16,3 C 71 % 1019,4 hPa 0,0 mm 1,6 km/h (1 Bft) N-NO 22 9,4 C 0,0 km/h (0 Bft)
18.09.2015 16:45 14,6 C 16,3 C 71 % 1019,4 hPa 0,0 mm 1,8 km/h (1 Bft) NO 45 9,4 C 0,0 km/h (0 Bft)
18.09.2015 16:50 14,6 C 16,3 C 71 % 1019,4 hPa 0,0 mm 1,3 km/h (1 Bft) O-SO 112 9,4 C 3,4 km/h (1 Bft)
18.09.2015 16:55 14,6 C 16,1 C 71 % 1019,4 hPa 0,0 mm 1,3 km/h (1 Bft) NO 45 9,4 C 0,0 km/h (0 Bft)
18.09.2015 17:00 14,6 C 16,1 C 71 % 1019,4 hPa 0,0 mm 1,0 km/h (0 Bft) NO 45 9,4 C 2,6 km/h (1 Bft)
18.09.2015 17:05 14,6 C 15,9 C 71 % 1019,4 hPa 0,0 mm 0,8 km/h (0 Bft) O-NO 67 9,4 C 0,0 km/h (0 Bft)
18.09.2015 17:10 14,6 C 15,9 C 71 % 1019,4 hPa 0,0 mm 0,5 km/h (0 Bft) O-NO 67 9,4 C 4,1 km/h (1 Bft)
18.09.2015 17:15 14,6 C 15,8 C 71 % 1019,4 hPa 0,0 mm 0,3 km/h (0 Bft) O-SO 112 9,4 C 0,0 km/h (0 Bft)
18.09.2015 17:20 14,4 C 15,5 C 72 % 1019,4 hPa 0,0 mm 0,3 km/h (0 Bft) O-NO 67 9,4 C 0,0 km/h (0 Bft)
18.09.2015 17:25 14,4 C 15,3 C 72 % 1019,4 hPa 0,0 mm 0,0 km/h (0 Bft) O-NO 67 9,4 C 0,0 km/h (0 Bft)
18.09.2015 17:30 14,4 C 15,3 C 72 % 1019,4 hPa 0,0 mm 0,3 km/h (0 Bft) NO 45 9,4 C 0,0 km/h (0 Bft)
18.09.2015 17:35 14,5 C 15,4 C 72 % 1019,6 hPa 0,0 mm 0,3 km/h (0 Bft) NO 45 9,5 C 0,0 km/h (0 Bft)
18.09.2015 17:40 14,6 C 15,4 C 72 % 1019,6 hPa 0,0 mm 0,0 km/h (0 Bft) O-NO 67 9,6 C 0,0 km/h (0 Bft)
18.09.2015 17:45 14,5 C 15,3 C 72 % 1019,6 hPa 0,0 mm 0,3 km/h (0 Bft) NO 45 9,5 C 0,0 km/h (0 Bft)
18.09.2015 17:50 14,4 C 15,1 C 73 % 1019,6 hPa 0,0 mm 0,3 km/h (0 Bft) NO 45 9,6 C 0,0 km/h (0 Bft)
18.09.2015 17:55 14,3 C 15,0 C 73 % 1019,8 hPa 0,0 mm 0,3 km/h (0 Bft) O-SO 112 9,5 C 3,6 km/h (1 Bft)
18.09.2015 18:00 14,2 C 14,8 C 73 % 1019,8 hPa 0,0 mm 0,3 km/h (0 Bft) SO 135 9,4 C 0,0 km/h (0 Bft)
18.09.2015 18:05 14,1 C 14,6 C 73 % 1019,8 hPa 0,0 mm 0,3 km/h (0 Bft) O-NO 67 9,3 C 0,0 km/h (0 Bft)
18.09.2015 18:10 14,1 C 14,4 C 73 % 1019,8 hPa 0,0 mm 0,0 km/h (0 Bft) O-SO 112 9,3 C 0,0 km/h (0 Bft)
18.09.2015 18:15 14,0 C 14,3 C 73 % 1019,9 hPa 0,0 mm 0,0 km/h (0 Bft) O-SO 112 9,2 C 0,0 km/h (0 Bft)
18.09.2015 18:20 13,9 C 14,1 C 74 % 1019,9 hPa 0,0 mm 0,0 km/h (0 Bft) O 90 9,3 C 0,0 km/h (0 Bft)
18.09.2015 18:25 13,8 C 13,9 C 74 % 1019,9 hPa 0,0 mm 0,0 km/h (0 Bft) O-NO 67 9,2 C 0,0 km/h (0 Bft)
18.09.2015 18:30 13,7 C 13,7 C 75 % 1019,9 hPa 0,0 mm 0,3 km/h (0 Bft) SO 135 9,3 C 0,0 km/h (0 Bft)
18.09.2015 18:35 13,6 C 13,6 C 75 % 1019,9 hPa 0,0 mm 0,3 km/h (0 Bft) SO 135 9,3 C 0,0 km/h (0 Bft)
18.09.2015 18:40 13,4 C 13,4 C 75 % 1019,9 hPa 0,0 mm 0,0 km/h (0 Bft) S-SO 157 9,1 C 0,0 km/h (0 Bft)
18.09.2015 18:45 13,3 C 13,3 C 76 % 1019,9 hPa 0,0 mm 0,0 km/h (0 Bft) SO 135 9,2 C 0,0 km/h (0 Bft)
18.09.2015 18:50 13,1 C 13,1 C 76 % 1019,9 hPa 0,0 mm 0,0 km/h (0 Bft) SO 135 9,0 C 0,0 km/h (0 Bft)
18.09.2015 18:55 13,1 C 13,0 C 76 % 1020,1 hPa 0,0 mm 0,0 km/h (0 Bft) SO 135 9,0 C 0,0 km/h (0 Bft)
18.09.2015 19:00 13,0 C 13,0 C 76 % 1020,1 hPa 0,0 mm 0,0 km/h (0 Bft) N-NW 337 8,9 C 0,0 km/h (0 Bft)
18.09.2015 19:05 13,0 C 12,9 C 77 % 1020,1 hPa 0,0 mm 2,1 km/h (1 Bft) NW 315 9,1 C 7,0 km/h (2 Bft)
18.09.2015 19:10 12,7 C 12,7 C 78 % 1020,1 hPa 0,0 mm 6,5 km/h (2 Bft) NW 315 9,0 C 8,3 km/h (2 Bft)
18.09.2015 19:15 12,6 C 12,5 C 78 % 1020,3 hPa 0,0 mm 7,0 km/h (2 Bft) NW 315 8,9 C 6,2 km/h (2 Bft)
18.09.2015 19:20 12,3 C 12,2 C 78 % 1020,3 hPa 0,0 mm 5,7 km/h (1 Bft) W 270 8,6 C 4,7 km/h (1 Bft)
18.09.2015 19:25 12,1 C 11,9 C 78 % 1020,3 hPa 0,0 mm 6,0 km/h (2 Bft) W-NW 292 8,4 C 8,5 km/h (2 Bft)
18.09.2015 19:30 11,9 C 11,7 C 79 % 1020,3 hPa 0,0 mm 4,1 km/h (1 Bft) W-SW 247 8,4 C 5,2 km/h (1 Bft)
18.09.2015 19:35 11,7 C 11,5 C 80 % 1020,6 hPa 0,0 mm 3,9 km/h (1 Bft) W-NW 292 8,4 C 7,0 km/h (2 Bft)
18.09.2015 19:40 11,4 C 11,1 C 81 % 1020,6 hPa 0,7 mm 5,4 km/h (1 Bft) N-NW 337 8,3 C 0,0 km/h (0 Bft)
18.09.2015 19:45 11,2 C 11,0 C 81 % 1020,6 hPa 0,0 mm 5,7 km/h (1 Bft) W 270 8,1 C 4,4 km/h (1 Bft)
18.09.2015 19:50 11,1 C 10,9 C 81 % 1020,6 hPa 0,0 mm 2,1 km/h (1 Bft) S 180 8,0 C 0,0 km/h (0 Bft)
18.09.2015 19:55 11,0 C 10,8 C 82 % 1020,9 hPa 0,0 mm 1,3 km/h (1 Bft) W-NW 292 8,0 C 5,2 km/h (1 Bft)
18.09.2015 20:00 10,9 C 10,7 C 82 % 1020,9 hPa 0,0 mm 1,6 km/h (1 Bft) W-SW 247 7,9 C 0,0 km/h (0 Bft)
18.09.2015 20:05 10,8 C 10,6 C 83 % 1020,9 hPa 0,0 mm 1,0 km/h (0 Bft) W-SW 247 8,0 C 0,0 km/h (0 Bft)
18.09.2015 20:10 10,8 C 10,6 C 83 % 1020,9 hPa 0,0 mm 0,0 km/h (0 Bft) SW 225 8,0 C 0,0 km/h (0 Bft)
18.09.2015 20:15 10,7 C 10,5 C 83 % 1021,1 hPa 0,0 mm 0,0 km/h (0 Bft) S-SW 202 7,9 C 0,0 km/h (0 Bft)
18.09.2015 20:20 10,8 C 10,6 C 83 % 1021,1 hPa 0,0 mm 0,0 km/h (0 Bft) SW 225 8,0 C 0,0 km/h (0 Bft)
18.09.2015 20:25 10,7 C 10,5 C 84 % 1021,1 hPa 0,0 mm 0,0 km/h (0 Bft) S 180 8,1 C 0,0 km/h (0 Bft)
18.09.2015 20:30 10,7 C 10,5 C 85 % 1021,1 hPa 0,0 mm 0,0 km/h (0 Bft) S 180 8,3 C 0,0 km/h (0 Bft)
18.09.2015 20:35 10,7 C 10,5 C 85 % 1021,4 hPa 0,0 mm 0,0 km/h (0 Bft) S 180 8,3 C 0,0 km/h (0 Bft)
18.09.2015 20:40 10,7 C 10,5 C 85 % 1021,4 hPa 0,0 mm 0,0 km/h (0 Bft) S 180 8,3 C 0,0 km/h (0 Bft)
18.09.2015 20:45 10,7 C 10,5 C 86 % 1021,4 hPa 0,0 mm 0,0 km/h (0 Bft) S 180 8,5 C 0,0 km/h (0 Bft)
18.09.2015 20:50 10,7 C 10,5 C 86 % 1021,4 hPa 0,0 mm 0,0 km/h (0 Bft) S 180 8,5 C 0,0 km/h (0 Bft)
18.09.2015 20:55 10,7 C 10,5 C 86 % 1021,5 hPa 0,0 mm 0,0 km/h (0 Bft) SW 225 8,5 C 0,0 km/h (0 Bft)
18.09.2015 21:00 10,7 C 10,5 C 86 % 1021,5 hPa 0,0 mm 0,0 km/h (0 Bft) W-SW 247 8,5 C 0,0 km/h (0 Bft)
18.09.2015 21:05 10,7 C 10,5 C 86 % 1021,5 hPa 0,7 mm 0,5 km/h (0 Bft) S 180 8,5 C 3,9 km/h (1 Bft)
18.09.2015 21:10 10,7 C 10,6 C 86 % 1021,5 hPa 0,7 mm 0,8 km/h (0 Bft) SO 135 8,5 C 0,0 km/h (0 Bft)
18.09.2015 21:15 10,6 C 10,5 C 86 % 1021,8 hPa 0,0 mm 0,3 km/h (0 Bft) S 180 8,4 C 0,0 km/h (0 Bft)
18.09.2015 21:20 10,6 C 10,5 C 87 % 1021,8 hPa 0,7 mm 0,3 km/h (0 Bft) SW 225 8,5 C 0,0 km/h (0 Bft)
18.09.2015 21:25 10,6 C 10,5 C 87 % 1021,8 hPa 0,0 mm 0,3 km/h (0 Bft) S 180 8,5 C 0,0 km/h (0 Bft)
18.09.2015 21:30 10,6 C 10,5 C 87 % 1021,8 hPa 0,7 mm 1,0 km/h (0 Bft) S-SO 157 8,5 C 0,0 km/h (0 Bft)
18.09.2015 21:35 10,6 C 10,5 C 88 % 1021,9 hPa 0,0 mm 1,3 km/h (1 Bft) O-NO 67 8,7 C 0,0 km/h (0 Bft)
18.09.2015 21:40 10,6 C 10,4 C 88 % 1021,9 hPa 0,0 mm 0,3 km/h (0 Bft) SO 135 8,7 C 0,0 km/h (0 Bft)
18.09.2015 21:45 10,5 C 10,4 C 88 % 1021,9 hPa 0,0 mm 0,0 km/h (0 Bft) SO 135 8,6 C 0,0 km/h (0 Bft)
18.09.2015 21:50 10,5 C 10,4 C 88 % 1021,9 hPa 0,0 mm 0,0 km/h (0 Bft) O-SO 112 8,6 C 0,0 km/h (0 Bft)
18.09.2015 21:55 10,5 C 10,4 C 88 % 1021,9 hPa 0,0 mm 0,0 km/h (0 Bft) S-SO 157 8,6 C 0,0 km/h (0 Bft)
18.09.2015 22:00 10,5 C 10,4 C 88 % 1021,9 hPa 0,0 mm 0,5 km/h (0 Bft) S-SO 157 8,6 C 0,0 km/h (0 Bft)
18.09.2015 22:05 10,4 C 10,3 C 88 % 1021,9 hPa 0,0 mm 0,5 km/h (0 Bft) SW 225 8,5 C 0,0 km/h (0 Bft)
18.09.2015 22:10 10,4 C 10,3 C 88 % 1021,9 hPa 0,0 mm 0,0 km/h (0 Bft) S 180 8,5 C 0,0 km/h (0 Bft)
18.09.2015 22:15 10,4 C 10,3 C 88 % 1021,8 hPa 0,0 mm 0,0 km/h (0 Bft) S-SO 157 8,5 C 0,0 km/h (0 Bft)
18.09.2015 22:20 10,4 C 10,3 C 88 % 1021,8 hPa 0,0 mm 0,0 km/h (0 Bft) S-SO 157 8,5 C 0,0 km/h (0 Bft)
18.09.2015 22:25 10,4 C 10,3 C 89 % 1021,8 hPa 0,0 mm 0,0 km/h (0 Bft) O-NO 67 8,7 C 0,0 km/h (0 Bft)
18.09.2015 22:30 10,3 C 10,2 C 89 % 1021,8 hPa 0,0 mm 0,0 km/h (0 Bft) W-SW 247 8,6 C 0,0 km/h (0 Bft)
18.09.2015 22:33 10,4 C 10,3 C 89 % 1021,8 hPa 0,0 mm 0,0 km/h (0 Bft) S-SO 157 8,7 C 0,0 km/h (0 Bft)
18.09.2015 22:35 10,4 C 10,3 C 89 % 1021,8 hPa 0,0 mm 0,0 km/h (0 Bft) S-SO 157 8,7 C 0,0 km/h (0 Bft)
18.09.2015 22:40 10,3 C 10,2 C 89 % 1021,8 hPa 0,0 mm 0,0 km/h (0 Bft) S-SO 157 8,6 C 0,0 km/h (0 Bft)
18.09.2015 22:45 10,3 C 10,2 C 89 % 1021,8 hPa 0,0 mm 0,0 km/h (0 Bft) S-SO 157 8,6 C 0,0 km/h (0 Bft)
18.09.2015 22:50 10,3 C 10,2 C 89 % 1021,8 hPa 0,0 mm 0,0 km/h (0 Bft) S-SO 157 8,6 C 0,0 km/h (0 Bft)
18.09.2015 22:55 10,2 C 10,1 C 89 % 1021,9 hPa 0,0 mm 0,0 km/h (0 Bft) S-SO 157 8,5 C 0,0 km/h (0 Bft)
18.09.2015 23:00 10,1 C 10,0 C 89 % 1021,9 hPa 0,0 mm 0,0 km/h (0 Bft) O-NO 67 8,4 C 0,0 km/h (0 Bft)
18.09.2015 23:05 9,9 C 9,8 C 89 % 1021,9 hPa 0,0 mm 0,0 km/h (0 Bft) O-SO 112 8,2 C 0,0 km/h (0 Bft)
18.09.2015 23:10 9,9 C 9,7 C 89 % 1021,9 hPa 0,0 mm 0,0 km/h (0 Bft) O-SO 112 8,2 C 0,0 km/h (0 Bft)
18.09.2015 23:15 9,9 C 9,7 C 89 % 1021,9 hPa 0,0 mm 0,0 km/h (0 Bft) O-SO 112 8,2 C 0,0 km/h (0 Bft)
18.09.2015 23:20 9,8 C 9,6 C 89 % 1021,9 hPa 0,0 mm 0,0 km/h (0 Bft) O-SO 112 8,1 C 0,0 km/h (0 Bft)
18.09.2015 23:25 9,8 C 9,6 C 89 % 1021,9 hPa 0,0 mm 0,0 km/h (0 Bft) O-SO 112 8,1 C 2,6 km/h (1 Bft)
18.09.2015 23:30 9,8 C 9,7 C 90 % 1021,9 hPa 0,0 mm 0,8 km/h (0 Bft) O 90 8,2 C 0,0 km/h (0 Bft)
18.09.2015 23:35 9,5 C 9,4 C 90 % 1021,9 hPa 0,0 mm 0,8 km/h (0 Bft) O-SO 112 7,9 C 0,0 km/h (0 Bft)
18.09.2015 23:40 9,3 C 9,2 C 89 % 1021,9 hPa 0,0 mm 0,0 km/h (0 Bft) SO 135 7,6 C 0,0 km/h (0 Bft)
18.09.2015 23:45 9,1 C 8,9 C 89 % 1021,9 hPa 0,0 mm 0,0 km/h (0 Bft) O-NO 67 7,4 C 0,0 km/h (0 Bft)
18.09.2015 23:50 8,8 C 8,6 C 89 % 1021,9 hPa 0,0 mm 0,5 km/h (0 Bft) NW 315 7,1 C 4,7 km/h (1 Bft)
18.09.2015 23:55 8,7 C 8,5 C 89 % 1022,1 hPa 0,0 mm 0,5 km/h (0 Bft) W 270 7,0 C 0,0 km/h (0 Bft)
_ Min-Zeit 07:40 07:40 14:00 00:10 - 23:45 - - 07:40 23:55
Minimum _ 7,6 C 7,5 C 60 % 1015,9 hPa - 0,0 km/h (0 Bft) - - 5,6 C 0,0 km/h (0 Bft)
_ Max-Zeit 11:35 09:20 23:35 23:55 21:30 14:15 - - 09:15 14:10
Maximum _ 17,6 C 23,6 C 90 % 1022,1 hPa 0,7 mm 9,8 km/h
W (2 Bft)
- - 11,3 C 17,1 km/h
NW (3 Bft)
Durchschnitt _ 12,0 C 13,3 C 79 % 1018,6 hPa #3,4 mm 1,4 km/h (1 Bft) NW - 8,3 C 1,8 km/h (1 Bft)